DW8522 Weather Reports


Display with metric or nautical units.
time (UTC)temp
F
wind
direction
speed
MPH
gust
MPH
rain 1hr
in
rain 24hr
in
rain mn
in
humidity
%
barometer
mb
20260906041516 62 302 3.0 7.0 0.00 0.00 0.00 71 1011.8
20260906040017 63 292 3.0 10.0 0.00 0.00 0.00 70 1012.1
20260906034517 62 188 3.0 10.0 0.00 0.00 0.00 70 1012.2
20260906033011 63 258 4.0 14.0 0.00 0.00 0.00 69 1012.4
20260906031527 63 278 4.0 8.0 0.00 0.00 0.00 71 1012.5
20260906030011 64 335 2.0 5.0 0.00 0.00 0.00 71 1012.6
20260906024530 64 120 1.0 4.0 0.00 0.00 0.00 72 1012.7
20260906023007 64 101 1.0 5.0 0.00 0.00 0.00 73 1012.8
20260906021501 63 14 1.0 4.0 0.00 0.00 0.00 76 1013.1
20260906020101 61 206 1.0 4.0 0.00 0.00 0.00 79 1013.2
20260906014557 60 335 2.0 7.0 0.00 0.00 0.00 80 1013.4
20260906013103 60 335 4.0 8.0 0.00 0.00 0.00 77 1013.7
20260906011553 61 302 4.0 9.0 0.00 0.00 0.00 76 1014.0
20260906010052 62 177 3.0 8.0 0.00 0.00 0.00 73 1014.2
20260906004549 62 322 2.0 7.0 0.00 0.00 0.00 73 1014.4
20260906003046 62 13 2.0 6.0 0.00 0.00 0.00 75 1014.8
20260906001543 62 322 3.0 9.0 0.00 0.00 0.00 72 1015.2
20260906000050 62 168 3.0 6.0 0.00 0.00 0.00 70 1015.5
20260905234546 63 129 1.0 7.0 0.00 0.00 0.00 71 1015.6
20260905233035 63 170 2.0 7.0 0.00 0.00 0.00 72 1015.9
20260905231531 61 143 2.0 6.0 0.00 0.00 0.00 75 1016.2
20260905230033 61 190 4.0 9.0 0.00 0.00 0.00 72 1016.6
20260905224528 62 173 4.0 10.0 0.00 0.00 0.00 73 1016.9
20260905223027 62 86 2.0 11.0 0.00 0.00 0.00 74 1017.0
20260905221525 62 257 2.0 7.0 0.00 0.00 0.00 76 1017.2
20260905220023 61 245 1.0 6.0 0.00 0.00 0.00 78 1017.2
20260905214521 61 39 2.0 6.0 0.00 0.00 0.00 79 1017.5
20260905213018 60 161 3.0 7.0 0.00 0.00 0.00 81 1017.5
20260905211539 59 136 2.0 5.0 0.00 0.00 0.00 84 1017.7
20260905210012 58 188 1.0 4.0 0.00 0.00 0.00 85 1017.9
20260905204509 57 111 2.0 5.0 0.00 0.00 0.00 87 1017.8
20260905203008 56 152 0.0 3.0 0.00 0.00 0.00 88 1017.8
20260905201505 56 131 0.0 1.0 0.00 0.00 0.00 89 1018.0
20260905200004 55 131 0.0 1.0 0.00 0.00 0.00 91 1018.0
20260905194501 54 131 0.0 1.0 0.00 0.00 0.00 92 1017.7
20260905193101 52 141 0.0 1.0 0.00 0.00 0.00 92 1017.6
20260905191602 51 139 0.0 1.0 0.00 0.00 0.00 92 1017.5
20260905190059 51 139 0.0 0.0 0.00 0.00 0.00 91 1017.4
20260905184558 51 138 0.0 0.0 0.00 0.00 0.00 90 1017.4
20260905183058 52 138 0.0 1.0 0.00 0.00 0.00 89 1017.0
20260905181557 53 139 0.0 1.0 0.00 0.00 0.00 89 1017.0
20260905180103 54 139 0.0 2.0 0.00 0.00 0.00 88 1016.9
20260905174556 54 141 0.0 2.0 0.00 0.00 0.00 88 1016.9
20260905173103 53 278 0.0 3.0 0.00 0.00 0.00 88 1016.9
20260905171555 53 101 0.0 2.0 0.00 0.00 0.00 87 1016.7
20260905170053 54 168 0.0 1.0 0.00 0.00 0.00 86 1016.8
20260905164553 54 168 0.0 3.0 0.00 0.00 0.00 85 1016.9
20260905163051 54 155 1.0 7.0 0.00 0.00 0.00 88 1016.9
20260905161551 52 103 0.0 2.0 0.00 0.00 0.00 90 1016.8
20260905160051 52 148 0.0 1.0 0.00 0.00 0.00 89 1017.0
20260905154556 52 150 0.0 1.0 0.00 0.00 0.00 89 1017.4
20260905153049 51 140 0.0 2.0 0.00 0.00 0.00 90 1017.0
20260905151549 51 103 1.0 3.0 0.00 0.00 0.00 89 1016.6
20260905150047 50 130 0.0 0.0 0.00 0.00 0.00 89 1017.1
20260905144544 50 129 0.0 1.0 0.00 0.00 0.00 88 1017.1
20260905143048 51 129 0.0 1.0 0.00 0.00 0.00 87 1017.3
20260905141536 52 129 0.0 2.0 0.00 0.00 0.00 85 1017.7
20260905140033 53 129 0.0 1.0 0.00 0.00 0.00 84 1017.9
20260905134535 55 122 0.0 4.0 0.00 0.00 0.00 84 1018.0
20260905133029 55 160 2.0 5.0 0.00 0.00 0.00 83 1017.9
20260905131528 55 166 1.0 6.0 0.00 0.00 0.00 82 1018.1
20260905130024 55 158 1.0 3.0 0.00 0.00 0.00 82 1018.2
20260905124534 55 187 0.0 3.0 0.00 0.00 0.00 81 1018.3
20260905123023 55 328 2.0 6.0 0.00 0.00 0.00 81 1018.1
20260905121521 55 173 1.0 6.0 0.00 0.00 0.00 80 1018.3
20260905120019 54 124 1.0 4.0 0.00 0.00 0.00 82 1018.4
20260905114519 54 318 0.0 4.0 0.00 0.00 0.00 83 1018.5
20260905113019 54 165 0.0 5.0 0.00 0.00 0.00 82 1018.4
20260905111520 53 166 1.0 3.0 0.00 0.00 0.00 83 1018.6
20260905110017 53 173 0.0 8.0 0.00 0.00 0.00 83 1018.5
20260905104516 52 121 0.0 1.0 0.00 0.00 0.00 82 1018.4
20260905103016 53 120 0.0 2.0 0.00 0.00 0.00 81 1018.5
20260905101523 53 159 0.0 2.0 0.00 0.00 0.00 80 1018.6
20260905100015 54 153 1.0 4.0 0.00 0.00 0.00 79 1018.4
20260905094514 54 190 1.0 6.0 0.00 0.00 0.00 79 1018.4
20260905093014 54 198 1.0 8.0 0.00 0.00 0.00 79 1018.5
20260905091515 54 276 1.0 6.0 0.00 0.00 0.00 79 1018.7
20260905090015 54 228 1.0 5.0 0.00 0.00 0.00 78 1018.6
20260905084511 54 139 0.0 1.0 0.00 0.00 0.00 75 1018.8
20260905083018 55 160 0.0 2.0 0.00 0.00 0.00 73 1018.5
20260905081510 55 187 0.0 4.0 0.00 0.00 0.00 72 1018.3
20260905080011 55 180 1.0 5.0 0.00 0.00 0.00 73 1018.0
20260905074513 56 159 1.0 5.0 0.00 0.00 0.00 73 1017.7
20260905073009 56 204 1.0 5.0 0.00 0.00 0.00 73 1017.4
20260905071516 56 164 1.0 4.0 0.00 0.00 0.00 73 1017.2
20260905070008 57 158 0.0 3.0 0.00 0.00 0.00 72 1017.3
20260905064507 57 250 1.0 3.0 0.00 0.00 0.00 71 1017.3
20260905063007 58 142 1.0 5.0 0.00 0.00 0.00 70 1017.5
20260905061508 58 259 2.0 7.0 0.00 0.00 0.00 70 1017.4
20260905060005 59 322 3.0 7.0 0.00 0.00 0.00 69 1017.2
20260905054506 60 292 3.0 11.0 0.00 0.00 0.00 68 1017.2
20260905053004 60 215 2.0 6.0 0.00 0.00 0.00 64 1017.1
20260905051503 61 235 3.0 8.0 0.00 0.00 0.00 61 1016.9
20260905050002 63 177 1.0 6.0 0.00 0.00 0.00 62 1016.8
20260905044502 63 158 3.0 9.0 0.00 0.00 0.00 61 1016.9
20260905043100 63 283 4.0 10.0 0.00 0.00 0.00 62 1017.0